Location: *
(50.5492°N, 7.7469°E)
Time: 07:22:11
(UTC+00:00)

Cosmos 44 - Pass Details

Date: 21 October 2019
Orbit: 592 x 769 km, 65.1° (Epoch: 13 November)

Event Time Altitude Azimuth Distance (km) Brightness Sun altitude
Rises 19:03:38 0° 217° (SW) 3,092 6.9 -25.6°
Reaches altitude 10° 19:06:02 10° 217° (SW) 2,149 6.1 -26.0°
Enters shadow 19:09:45 52° 216° (SW) 837 3.7 -26.6°
